Home > Weather > Perm > Past weeks

Flag for Russia Weather for the Past 2 Weeks in Perm, Russia

Now
18 °F

Light snow. Mostly cloudy.


Feels Like: 9 °F
Forecast: 12 / 25 °F
Wind: 6 mph from Southwest

Location: Perm'/Bolshoe Savino

Current Time: Feb 8, 2016 at 9:20:46 AM

Latest Report: Feb 8, 2016 at 8:30 AM


Visibility: 5 mi

Pressure: 30.12 "Hg

Humidity: 86%

Dew point: 14 °F

Location of PermLocation

Historic Weather in Perm — Graph

°F

Perm Temperature Yesterday

Maximum temperature yesterday: 27 °F (at 12:00 PM)
Minimum temperature yesterday: 21 °F (at 8:30 PM)
Average temperature yesterday: 24 °F

High & Low Weather Summary for the Past Weeks

 TemperatureHumidityPressure
High36 °F (Feb 2, 1:00 AM)100% (Feb 2, 6:30 PM)30.33 "Hg (Feb 2, 6:30 PM)
Low-20 °F (Jan 28, 2:30 AM)62% (Jan 24, 11:00 AM)29.45 "Hg (Feb 4, 6:00 AM)
Average16 °F85%29.93 "Hg
* Reported Jan 24 8:00 AM — Feb 8 8:00 AM, Perm, Weather by CustomWeather, © 2016

Note: Actual official high and low records may vary slightly from our data, if they occured in-between our weather recording intervals... More about our weather records

Advertising

Perm Weather History for the Previous 24 Hours

 ConditionsComfort  
Time TempWeatherWind HumidityBarometerVisibility
8:00 AM
Mon, Feb 8
18 °FLight snow. Mostly cloudy.3 mph86%30.12 "Hg4 mi
7:30 AM18 °FLight snow. Mostly cloudy.8 mph93%30.12 "HgN/A
7:00 AM19 °FLight snow. Mostly cloudy.8 mph79%30.12 "HgN/A
6:00 AM19 °FLight snow. Mostly cloudy.8 mph79%30.12 "HgN/A
5:30 AM19 °FLight snow. Mostly cloudy.8 mph79%30.12 "HgN/A
5:00 AM19 °FLight snow. Mostly cloudy.6 mph86%30.09 "HgN/A
4:30 AM19 °FLight snow. Mostly cloudy.6 mph86%30.09 "HgN/A
4:00 AM19 °FLight snow. Mostly cloudy.6 mph86%30.09 "HgN/A
3:30 AM19 °FLight snow. Mostly cloudy.8 mph86%30.09 "HgN/A
3:00 AM19 °FLight snow. Mostly cloudy.8 mph86%30.09 "HgN/A
2:30 AM19 °FLight snow. Mostly cloudy.8 mph79%30.09 "HgN/A
2:00 AM19 °FLight snow. Mostly cloudy.8 mph79%30.09 "HgN/A
1:00 AM19 °FLight snow. Mostly cloudy.8 mph79%30.07 "HgN/A
12:00 AM21 °FLight snow. Mostly cloudy.8 mph74%30.07 "HgN/A
11:00 PM
Sun, Feb 7
21 °FLight snow. Mostly cloudy.8 mph68%30.07 "HgN/A
10:30 PM21 °FLight snow. Mostly cloudy.8 mph74%30.07 "HgN/A
10:00 PM21 °FLight snow. Mostly cloudy.8 mph74%30.04 "HgN/A
9:30 PM21 °FLight snow. Mostly cloudy.8 mph80%30.04 "HgN/A
9:00 PM21 °FLight snow. Mostly cloudy.6 mph80%30.04 "HgN/A
8:30 PM21 °FLight snow. Mostly cloudy.8 mph80%30.04 "HgN/A
8:00 PM23 °FLight snow. Mostly cloudy.8 mph74%30.04 "HgN/A
7:30 PM23 °FLight snow. Mostly cloudy.10 mph74%30.01 "HgN/A
7:00 PM23 °FLight snow. Mostly cloudy.8 mph80%30.01 "HgN/A
6:30 PM23 °FLight snow. Mostly cloudy.6 mph80%30.01 "HgN/A
6:00 PM25 °FLight snow. Mostly cloudy.8 mph74%30.01 "HgN/A
5:30 PM25 °FLight snow. Mostly cloudy.6 mph74%29.98 "HgN/A
5:00 PM25 °FSnow flurries. Partly sunny.6 mph80%29.98 "HgN/A
4:30 PM25 °FPartly sunny.6 mph80%29.98 "HgN/A
4:00 PM27 °FSnow flurries. Partly sunny.3 mph80%29.98 "Hg6 mi
3:30 PM25 °FPartly sunny.8 mph74%29.98 "HgN/A
3:00 PM27 °FPartly sunny.8 mph74%29.95 "HgN/A
2:30 PM27 °FSnow flurries. Partly sunny.10 mph80%29.98 "HgN/A
2:00 PM27 °FOvercast.6 mph93%29.98 "HgN/A
1:30 PM27 °FLight snow. Overcast.6 mph93%29.98 "HgN/A
1:00 PM27 °FBroken clouds.8 mph93%29.95 "HgN/A
12:30 PM27 °FBroken clouds.8 mph93%29.95 "HgN/A
12:00 PM27 °FSnow showers. Mostly cloudy.6 mph93%29.95 "Hg1 mi
11:30 AM25 °FCold.6 mph100%29.95 "Hg1 mi
11:00 AM25 °FLight snow. Ice fog.8 mph93%29.95 "Hg2 mi
10:30 AM25 °FLight snow. Overcast.8 mph93%29.95 "Hg4 mi
10:00 AM25 °FOvercast.10 mph93%29.95 "Hg5 mi
9:30 AM25 °FOvercast.8 mph93%29.92 "HgN/A
9:00 AM25 °FOvercast.10 mph93%29.92 "HgN/A
Weather by CustomWeather, © 2016

See weather overviewHow to use our weather pages